Voltar ao catálogo

STARLINK-30594

AtivoComunicaçõesVLEO
NORAD 58097·PAYLOAD·🇺🇸 United States

Lançado Oct 21, 2023 de Vandenberg Space Force Base

Loading…

Próximas Passagens (próximas 24 horas)

TLE

AtualizadoSource: CelesTrak SupGP

Época: Sep 14, 2026, 22:38 UTC

1 58097C 23161A   26257.94354167 -.00010385  00000+0 -30689-3 0  2577
2 58097  53.1591   3.6391 0001143  88.9989  38.1626 15.34391092    11

Acompanhe STARLINK-30594 em tempo real com AllMySat

Download on the App Store